This is the latest recevied weather packets stored in our database for station/object K4AMF. If no packets are shown the sender has not sent any weather packets the latest 10 day(s).
| Time | Temp. | Humidity | Pressure | Rain* | Wind** | Luminosity | Snow |
|---|---|---|---|---|---|---|---|
| 1777560630 | 25.56° C | 81% | 1008.3 hPa | 0 mm | - | 797 W/m² | - |
| 1777560328 | 25.56° C | 82% | 1008.4 hPa | 0 mm | - | 322 W/m² | - |
| 1777560025 | 25.56° C | 82% | 1008.5 hPa | 0 mm | - | 174 W/m² | - |
| 1777559721 | 25.56° C | 82% | 1008.5 hPa | 0 mm | - | 655 W/m² | - |
| 1777559418 | 25.56° C | 82% | 1008.7 hPa | 0 mm | - | 296 W/m² | - |
| 1777559115 | 25.56° C | 82% | 1008.7 hPa | 0 mm | - | 699 W/m² | - |
| 1777558810 | 25° C | 84% | 1008.3 hPa | 0 mm | - | 576 W/m² | - |
| 1777558505 | 24.44° C | 84% | 1008.4 hPa | 0 mm | - | 151 W/m² | - |
| 1777558202 | 24.44° C | 84% | 1008.4 hPa | 0 mm | - | 104 W/m² | - |
| 1777557898 | 25° C | 84% | 1008.2 hPa | 0 mm | - | 188 W/m² | - |
| 1777557595 | 25° C | 84% | 1008.2 hPa | 0 mm | - | 242 W/m² | - |
| 1777557291 | 25° C | 84% | 1008.7 hPa | 0 mm | - | 228 W/m² | - |
| 1777556988 | 24.44° C | 85% | 1008.5 hPa | 0 mm | - | 170 W/m² | - |
| 1777556683 | 25° C | 85% | 1008.5 hPa | 0 mm | - | 196 W/m² | - |
| 1777556379 | 25° C | 85% | 1008.2 hPa | 0 mm | - | 217 W/m² | - |
| 1777556074 | 25° C | 85% | 1008 hPa | 0 mm | - | 255 W/m² | - |
| 1777555774 | 25° C | 85% | 1007.9 hPa | 0 mm | - | 355 W/m² | - |
| 1777555471 | 24.44° C | 86% | 1008 hPa | 0 mm | - | 646 W/m² | - |
| 1777555167 | 23.89° C | 88% | 1008 hPa | 0 mm | - | 276 W/m² | - |
| 1777554865 | 23.89° C | 88% | 1007.9 hPa | 0 mm | - | 193 W/m² | - |
| 1777554561 | 23.33° C | 89% | 1008.4 hPa | 0 mm | - | 214 W/m² | - |
| 1777554258 | 23.33° C | 89% | 1008.2 hPa | 0 mm | - | 134 W/m² | - |
| 1777553955 | 23.33° C | 89% | 1008.3 hPa | 0 mm | - | 111 W/m² | - |
| 1777553651 | 23.33° C | 89% | 1008.4 hPa | 0 mm | - | 146 W/m² | - |
| 1777553348 | 23.33° C | 90% | 1008.4 hPa | 0 mm | - | 147 W/m² | - |
* Rain latest hour (hover to see other rain measurements)
** Current wind speed in m/s (hover to see current wind gust speed)